Weather History for Beverly, MA

Change the Weather History Date:

Tuesday, April 30, 2013

  Actual Average Record
Temperature  
Mean Temperature 52 °F -  
Max Temperature 64 °F 61 °F 86 °F (1985)
Min Temperature 42 °F 40 °F 4 °F (1976)
Degree Days  
Heating Degree Days 12    
Growing Degree Days 2 (Base 50)    
Moisture  
Dew Point 29 °F    
Average Humidity 45    
Maximum Humidity 76    
Minimum Humidity 18    
Precipitation  
Precipitation 0.00 in - - ()
Sea Level Pressure  
Sea Level Pressure 30.31 in    
Wind  
Wind Speed 3 mph (SE)    
Max Wind Speed 12 mph    
Max Gust Speed 16 mph    
Visibility 10 miles    
Events      
Averages and records for this station are not official NWS values.
T = Trace of Precipitation, MM = Missing Value Source: NWS Daily Summary

Daily Weather History Graph

Daily Weather History Graph

Search for Another Location

Airport:

Trip Planner

Search our weather history database for the weather conditions in past years. The results will help you decide how hot, cold, wet, or windy it might be!

Date:

Astronomy

Apr. 30, 2013 Rise Set
Actual Time 5:39 AM EDT 7:42 PM EDT
Civil Twilight 5:08 AM EDT 8:13 PM EDT
Nautical Twilight 4:31 AM EDT 8:51 PM EDT
Astronomical Twilight 3:50 AM EDT 9:32 PM EDT
Moon 12:04 AM EDT (4/30) 10:03 AM EDT (4/30)
Length of Visible Light 15h 04m
Length of Day
14h 03m
Waning Gibbous, 70% of the Moon is Illuminated
Apr 30
Waning Gibbous
May 2
Last Quarter
May 9
New
May 18
First Quarter
May 25
Full

Hourly Weather History & Observations

Time (EDT) Temp. Dew Point Humidity Pressure Visibility Wind Dir Wind Speed Gust Speed Precip Events Conditions
12:53 AM 48.9 °F 28.0 °F 44% 30.25 in 10.0 mi Calm Calm - N/A   Clear
1:53 AM 48.0 °F 30.0 °F 50% 30.25 in 10.0 mi Calm Calm - N/A   Clear
2:53 AM 46.9 °F 30.9 °F 54% 30.25 in 10.0 mi Calm Calm - N/A   Clear
3:53 AM 46.9 °F 33.1 °F 59% 30.25 in 10.0 mi Calm Calm - N/A   Clear
4:53 AM 43.0 °F 34.0 °F 71% 30.27 in 10.0 mi Calm Calm - N/A   Clear
5:53 AM 42.1 °F 34.0 °F 73% 30.27 in 10.0 mi Calm Calm - N/A   Clear
6:53 AM 44.1 °F 37.0 °F 76% 30.30 in 10.0 mi Calm Calm - N/A   Mostly Cloudy
7:53 AM 52.0 °F 41.0 °F 66% 30.31 in 10.0 mi Calm Calm - N/A   Mostly Cloudy
8:53 AM 55.9 °F 33.1 °F 42% 30.32 in 10.0 mi Calm Calm - N/A   Clear
9:53 AM 60.1 °F 25.0 °F 26% 30.32 in 10.0 mi SSE 3.5 mph - N/A   Scattered Clouds
10:53 AM 63.0 °F 24.1 °F 23% 30.32 in 10.0 mi Variable 5.8 mph - N/A   Clear
11:53 AM 63.0 °F 21.0 °F 20% 30.32 in 10.0 mi SE 9.2 mph 16.1 mph N/A   Clear
12:53 PM 62.1 °F 19.0 °F 19% 30.31 in 10.0 mi SSE 8.1 mph - N/A   Clear
1:53 PM 63.0 °F 19.0 °F 18% 30.31 in 10.0 mi SSE 10.4 mph - N/A   Clear
2:53 PM 62.1 °F 21.0 °F 21% 30.31 in 10.0 mi SE 11.5 mph - N/A   Clear
3:53 PM 62.1 °F 24.1 °F 23% 30.31 in 10.0 mi SE 10.4 mph - N/A   Clear
4:53 PM 60.1 °F 21.9 °F 23% 30.31 in 10.0 mi SE 9.2 mph - N/A   Clear
5:53 PM 57.9 °F 21.9 °F 25% 30.32 in 10.0 mi SE 9.2 mph - N/A   Clear
6:53 PM 54.0 °F 27.0 °F 35% 30.33 in 10.0 mi SE 8.1 mph - N/A   Clear
7:53 PM 50.0 °F 32.0 °F 50% 30.34 in 10.0 mi SE 5.8 mph - N/A   Clear
8:53 PM 48.9 °F 34.0 °F 56% 30.34 in 10.0 mi ESE 3.5 mph - N/A   Clear
9:53 PM 48.0 °F 35.1 °F 61% 30.34 in 10.0 mi SE 4.6 mph - N/A   Clear
10:53 PM 48.0 °F 37.9 °F 68% 30.35 in 10.0 mi Calm Calm - N/A   Clear
11:53 PM 46.9 °F 37.9 °F 71% 30.37 in 10.0 mi Calm Calm - N/A   Clear